GEFSCGP_500_meanwind_294.txt.gz
Wind_Speed
12 13 13 13 13 13 12 12 12 11 11 11 11 11 10 10 10 10 9 8 8 7 6 7 6 5 5 6 6 6 6 6 7 7 7 8 8 9 9 10 10 11 12 12
13 13 13 14 14 14 13 12 12 13 13 13 13 12 11 11 11 11 10 9 8 8 7 7 7 7 7 7 7 7 7 8 9 9 9 9 9 10 11 11 11 12 13 13
14 13 14 14 15 15 14 14 13 13 13 14 14 13 11 12 12 12 11 10 9 9 7 7 7 7 8 8 9 9 9 10 10 10 10 10 11 11 12 12 12 13 14 13
14 14 14 15 14 14 14 14 14 14 14 13 14 13 12 12 12 13 12 11 11 10 9 8 8 8 9 9 10 10 10 11 11 11 11 11 12 12 12 12 13 13 14 14
14 14 15 14 14 14 14 14 14 14 15 14 14 14 12 12 13 13 12 12 12 11 11 11 10 10 9 10 10 11 11 12 12 12 12 13 13 13 13 13 13 13 14 14
14 14 15 15 15 15 15 15 15 15 15 14 13 14 13 13 13 13 13 13 13 13 12 12 11 11 11 12 12 12 11 12 13 13 14 14 13 14 14 14 15 15 15 15
15 15 15 15 16 15 15 15 16 16 16 15 14 14 13 13 14 14 13 13 14 14 14 13 13 12 12 13 13 13 12 13 13 14 14 14 14 15 15 16 16 16 15 14
16 15 15 16 16 16 16 16 17 17 16 15 15 15 13 14 14 14 14 14 15 14 14 14 14 14 14 14 14 14 14 14 14 14 15 15 15 15 16 16 16 15 15 15
16 15 15 16 16 17 17 17 17 18 17 16 16 15 14 14 14 14 15 15 14 14 14 14 14 14 14 14 15 14 15 15 15 15 16 16 16 15 16 15 15 15 15 16
17 16 15 15 16 17 17 18 18 18 18 18 16 15 14 13 14 14 14 14 14 14 14 14 14 15 15 15 15 15 16 15 15 15 16 16 16 15 15 15 15 15 15 16
17 17 16 16 17 17 18 18 19 20 20 19 18 14 13 14 14 14 14 14 14 15 15 15 15 15 15 16 15 15 15 15 16 16 17 16 16 15 15 16 16 17 17 17
18 18 18 17 18 18 19 19 19 20 20 21 20 16 14 15 15 15 15 15 15 16 16 16 16 16 16 16 16 17 17 17 17 17 17 16 16 16 16 17 17 18 18 18
18 19 19 18 19 19 20 20 20 20 21 22 22 18 17 17 17 17 17 16 16 17 16 16 17 17 17 18 18 18 18 18 18 18 17 17 17 17 17 18 18 18 19 19
20 20 20 19 19 19 20 20 20 21 21 22 22 20 19 19 19 19 19 18 17 17 17 17 18 18 18 18 19 18 18 18 18 18 18 18 18 19 19 19 19 19 20 20
20 21 21 21 21 21 21 22 22 22 22 22 21 22 20 21 21 21 20 19 19 19 18 18 19 19 19 19 18 19 19 19 19 19 19 19 19 20 20 21 21 21 20 21
22 22 22 22 22 23 23 23 23 23 23 22 22 21 20 22 23 22 21 21 20 20 20 19 20 20 21 20 19 19 19 19 20 20 20 20 20 20 20 21 21 21 21 21
24 24 24 23 23 24 24 22 24 25 24 24 23 21 21 23 23 23 23 22 21 22 22 22 22 22 21 20 20 20 20 21 21 20 20 21 22 22 22 22 21 22 22 22
25 25 25 24 24 26 24 24 25 25 25 25 25 23 23 23 24 25 25 24 23 23 23 23 23 23 22 22 21 22 22 22 21 21 22 22 23 22 22 22 22 22 22 22
27 27 27 26 26 26 25 25 25 26 26 26 25 24 24 24 25 25 26 26 25 25 25 24 24 24 24 24 23 23 23 23 23 23 22 22 23 23 23 23 23 23 23 23
28 28 28 28 28 27 25 25 26 27 27 26 26 26 25 25 26 25 26 27 27 26 26 26 26 25 25 25 25 25 25 25 24 24 23 23 23 24 23 24 24 25 25 25
28 29 29 29 30 29 27 26 27 28 27 26 26 26 26 26 26 26 26 27 28 28 28 27 26 26 26 26 26 26 27 26 26 25 25 24 25 25 25 25 25 26 26 26
29 30 30 31 31 30 28 28 28 28 27 27 27 27 26 26 26 26 27 27 28 29 29 29 28 28 28 28 28 27 28 28 27 27 26 26 26 26 27 27 27 27 27 27
30 30 31 32 32 31 29 29 29 29 29 28 28 28 27 26 26 26 27 27 28 29 30 30 29 29 29 29 29 28 28 28 28 27 26 27 27 27 28 27 27 27 28 28
31 31 32 33 32 31 31 30 29 30 30 29 29 29 29 29 28 28 28 29 29 29 30 30 30 30 30 29 29 29 28 28 28 28 28 27 28 28 28 29 29 29 29 29
31 32 33 33 32 32 32 31 31 31 31 30 30 30 29 29 30 30 30 30 30 30 31 31 31 32 31 30 30 30 30 29 29 29 29 29 29 28 29 29 30 30 30 30
31 33 34 33 32 33 33 32 32 32 31 30 30 31 31 31 31 31 31 31 31 31 31 31 32 32 33 32 32 32 31 30 30 30 30 30 30 30 30 30 30 31 31 32

GEFSCGP_500_meanwind_300.txt.gz
Wind_Speed
10 10 9 9 10 10 11 10 10 11 11 12 12 12 12 12 12 11 11 10 9 10 9 9 9 8 8 8 8 8 8 8 8 8 8 9 10 10 11 11 11 11 12 12
11 11 11 10 11 11 11 11 11 11 12 12 12 12 13 13 13 13 12 11 10 10 10 10 10 9 9 9 9 9 9 9 9 9 9 10 10 11 11 12 12 13 13 14
12 12 12 11 11 11 12 12 12 12 12 12 13 13 14 14 14 14 13 12 11 11 10 10 10 10 10 10 10 10 10 10 10 10 11 11 12 12 12 12 12 13 14 14
13 12 12 12 12 12 12 13 12 12 12 13 13 13 14 14 15 14 14 13 12 12 12 11 11 11 11 10 10 10 11 11 11 11 12 13 13 13 13 13 13 14 14 14
13 13 13 13 13 13 13 13 13 12 13 13 13 13 13 14 14 14 14 14 13 13 13 12 12 12 12 12 11 11 12 12 12 13 13 14 14 14 14 14 14 14 14 14
14 14 13 13 13 13 13 14 14 14 14 15 14 14 13 14 14 14 15 15 14 14 14 14 13 13 13 12 12 12 12 13 13 13 14 15 15 14 14 14 14 14 15 14
15 15 14 14 14 14 14 14 14 14 15 15 14 15 13 13 14 14 15 15 15 15 15 15 14 14 14 14 14 14 14 14 14 15 15 15 15 14 14 14 13 14 14 14
16 16 15 14 14 14 14 14 14 15 15 15 15 15 13 13 13 14 14 15 16 16 16 16 15 15 15 15 15 15 15 15 15 15 15 15 15 15 14 13 13 13 14 14
16 16 15 15 14 14 14 15 15 15 16 16 16 14 13 14 13 14 15 15 15 16 16 17 16 16 17 16 16 16 16 16 16 16 16 16 15 15 14 13 13 14 14 14
16 16 15 15 15 14 15 15 16 16 16 16 16 15 13 14 14 14 15 15 15 16 16 16 16 17 17 17 17 18 18 17 16 17 17 16 16 16 15 15 15 15 15 15
18 17 17 17 16 16 15 16 17 17 17 17 16 16 14 14 15 15 15 16 16 16 16 17 17 18 18 18 18 18 18 18 17 17 16 16 17 16 16 16 16 16 16 15
18 18 18 18 18 18 17 17 17 18 18 18 19 18 15 15 15 15 16 16 17 17 17 18 18 19 19 19 19 19 19 19 18 18 17 16 16 16 16 17 16 17 16 16
18 18 18 18 19 19 19 18 18 19 19 19 19 18 17 17 16 16 17 17 17 18 19 19 20 20 20 20 19 19 19 19 19 19 18 18 17 17 17 17 17 17 17 17
20 19 19 19 19 20 20 20 20 20 20 20 19 19 19 19 18 18 18 18 18 19 19 19 20 20 21 21 20 20 20 20 20 19 20 19 19 19 18 18 18 18 18 17
21 22 21 20 20 21 21 21 21 22 22 21 20 20 19 19 20 20 20 20 20 19 19 20 21 21 22 22 22 21 21 21 20 21 20 20 19 19 19 20 20 19 19 18
22 23 22 22 21 22 22 22 22 22 22 22 22 20 20 20 21 21 21 21 21 21 20 21 22 23 24 24 23 23 22 22 22 22 22 21 20 21 21 21 21 20 20 19
23 23 24 24 23 24 23 23 24 24 24 23 22 21 21 21 21 22 21 20 21 22 22 22 22 24 25 25 24 24 24 24 23 23 23 22 22 22 22 22 22 21 21 21
22 23 24 25 25 26 24 24 24 25 25 24 24 23 23 22 22 22 22 22 22 21 22 22 23 23 24 25 26 25 25 24 24 24 23 23 23 22 22 22 22 22 22 22
23 23 24 25 26 26 25 24 24 24 24 24 25 25 24 24 24 23 23 23 23 23 23 23 24 24 24 25 26 26 26 25 25 24 24 24 24 23 23 22 22 22 23 23
25 25 25 26 27 27 25 25 25 25 25 24 25 25 25 25 25 25 25 25 25 25 25 25 25 25 25 26 27 27 27 27 26 26 26 25 25 25 24 24 24 24 24 24
26 26 27 27 28 28 26 26 26 26 25 25 25 25 25 25 25 25 26 26 26 27 27 27 27 27 27 27 28 28 28 28 27 27 27 26 26 26 25 25 25 25 25 25
27 28 28 29 29 28 27 27 27 26 26 26 25 26 26 26 26 26 27 27 27 28 28 29 29 28 28 28 29 29 28 28 28 28 28 27 26 26 26 26 26 26 26 26
28 29 29 30 30 28 27 28 27 27 27 27 27 27 27 27 27 27 27 27 27 28 28 28 29 28 28 28 28 28 28 29 29 29 28 28 27 27 27 26 27 27 26 27
29 29 29 30 30 30 29 29 29 29 28 29 28 28 28 28 28 27 27 27 27 27 28 28 29 29 29 29 28 28 28 30 30 30 30 29 29 28 27 27 27 27 27 27
29 29 30 30 30 31 30 30 30 30 29 29 30 29 29 29 29 28 28 28 28 28 28 28 29 29 30 30 30 29 29 30 31 32 32 31 30 30 29 29 29 29 28 28
29 30 30 30 30 32 32 31 31 31 30 30 30 30 30 30 30 29 29 29 29 28 29 29 29 30 30 31 30 30 30 31 31 31 33 32 32 31 31 31 31 30 31 30

GEFSCGP_500_meanwind_306.txt.gz
Wind_Speed
10 10 11 10 10 10 11 11 10 11 11 13 13 12 12 13 13 12 12 11 10 10 11 11 10 10 11 10 10 10 10 9 9 9 10 10 11 11 12 12 12 13 13 13
11 11 11 11 11 12 12 12 12 12 12 13 14 13 13 14 14 14 13 12 12 12 13 12 12 11 11 11 10 11 11 11 10 11 11 11 12 12 13 13 13 13 14 14
12 12 11 12 13 13 13 13 13 13 12 13 14 14 13 14 15 15 14 13 13 13 13 13 12 12 11 11 11 11 12 12 12 12 12 12 12 13 13 14 14 14 14 15
14 13 14 14 14 14 14 13 13 14 14 14 14 14 13 13 14 15 14 14 14 14 14 13 13 12 12 12 12 12 12 13 13 13 13 13 13 14 14 14 14 15 15 15
16 15 15 16 15 14 14 14 13 14 14 14 14 15 14 14 14 14 14 16 16 15 15 14 14 13 13 13 13 13 13 14 14 13 13 14 14 15 15 15 15 15 15 15
16 16 16 16 16 15 15 14 14 14 14 14 14 15 15 14 15 15 15 17 17 16 16 16 15 15 14 14 14 15 14 14 14 15 15 15 15 15 16 16 17 16 16 16
17 17 16 16 16 16 15 14 13 13 14 14 13 15 16 15 16 16 16 17 17 17 17 17 17 16 16 16 16 16 16 16 16 16 16 16 16 16 17 18 18 17 16 16
17 17 16 16 17 17 16 15 14 13 12 13 14 17 16 15 17 17 17 17 17 17 17 17 18 18 17 18 18 18 17 17 17 17 17 17 17 17 17 17 17 16 15 15
15 16 16 17 17 17 16 16 16 15 14 13 14 16 16 16 17 18 18 17 17 17 18 18 18 19 19 19 19 19 18 18 18 18 17 17 17 17 16 16 16 15 15 15
17 17 16 17 18 18 17 16 16 17 16 15 15 16 18 17 17 18 18 18 17 17 18 18 19 19 19 19 19 18 18 19 18 18 18 17 17 17 16 16 16 16 16 16
18 19 18 18 18 18 18 18 18 19 18 16 16 18 18 19 18 17 18 19 18 19 19 19 20 19 19 19 19 19 19 19 18 18 18 19 18 17 17 17 17 17 17 17
19 20 19 19 18 18 19 18 18 19 19 19 20 21 19 19 20 19 19 19 20 19 19 20 20 21 21 21 21 20 19 19 19 19 19 19 18 17 17 17 17 17 17 17
21 21 20 19 20 19 19 19 20 20 20 19 20 21 20 20 20 20 20 20 21 21 20 20 21 22 22 22 22 20 20 20 20 20 20 20 19 18 18 18 18 18 18 18
22 22 21 21 21 20 20 21 21 20 21 20 20 20 22 22 22 21 21 21 21 22 21 21 21 22 23 22 22 21 21 21 21 21 21 21 20 20 20 20 20 20 20 20
24 23 24 24 23 23 23 22 22 22 22 22 20 21 22 23 23 22 22 23 23 23 22 22 21 21 22 22 22 22 22 22 22 22 23 22 22 22 22 22 22 22 21 21
24 24 24 25 24 24 25 24 24 23 22 23 23 23 22 23 24 24 23 23 23 23 23 23 23 23 22 22 23 23 23 23 23 24 24 24 23 23 23 23 23 23 23 23
25 25 25 25 25 26 26 24 24 25 24 25 25 24 24 23 24 24 25 24 24 24 24 24 24 24 23 23 24 23 23 24 25 25 26 26 25 25 25 25 25 25 25 25
25 25 26 26 27 28 26 24 25 26 25 25 26 26 26 25 26 26 26 25 25 25 25 25 25 24 24 24 25 25 25 25 26 26 26 26 26 27 26 26 26 25 25 25
26 26 27 28 28 28 26 26 26 27 27 26 27 27 26 26 27 26 27 26 26 26 26 26 26 26 26 26 26 26 27 27 27 28 28 28 27 27 27 27 28 27 26 26
26 26 27 27 28 28 27 26 26 27 28 28 28 27 27 27 28 27 26 27 27 27 27 27 27 27 27 28 27 27 28 28 29 29 29 28 28 28 28 29 30 29 28 27
27 28 28 27 28 29 28 27 27 28 29 29 28 28 28 28 28 27 27 27 28 29 28 28 28 28 28 28 29 28 28 29 29 30 30 30 30 29 30 30 30 30 29 28
29 29 29 30 30 30 29 28 29 30 30 29 29 29 29 29 29 29 29 29 29 29 29 29 29 29 29 29 29 29 29 29 30 31 31 31 32 32 31 31 31 31 30 30
31 31 32 32 32 32 31 31 31 31 30 30 30 30 30 30 30 30 30 30 30 30 30 30 30 30 30 30 30 30 30 30 31 31 31 32 32 32 32 32 32 32 31 31
32 32 33 34 34 34 34 33 33 32 31 31 31 31 31 32 32 32 31 32 31 31 31 31 31 31 31 31 31 31 31 31 31 31 32 32 31 31 32 31 31 31 31 31
33 33 33 34 34 35 35 35 35 34 34 34 34 33 33 33 33 33 33 33 33 33 33 33 33 33 32 32 32 31 31 31 31 31 31 31 31 31 31 31 31 31 30 31
32 34 35 36 35 36 36 36 36 35 35 35 35 34 34 33 33 34 34 34 34 34 34 34 34 34 33 32 32 32 32 32 33 33 32 32 31 31 30 30 31 31 31 32

GEFSCGP_500_meanwind_312.txt.gz
Wind_Speed
11 11 10 10 11 11 11 10 9 9 9 9 9 8 8 8 8 9 10 10 9 9 9 9 8 8 8 8 8 7 7 7 7 7 7 7 7 7 8 9 10 10 10 10
12 12 12 12 12 12 12 12 11 11 10 11 10 9 9 9 9 9 10 10 10 10 10 9 9 10 9 9 9 8 8 8 9 8 8 8 8 8 9 10 10 11 11 11
12 12 13 13 13 13 13 13 11 11 11 11 10 10 9 10 10 10 10 11 10 11 11 11 11 10 10 10 10 9 9 9 9 9 9 9 9 9 10 10 11 11 11 11
13 13 13 13 13 13 12 12 12 11 11 11 11 10 10 10 10 10 10 10 11 11 11 12 12 12 11 11 11 11 10 10 10 10 10 10 11 10 10 10 11 11 12 12
12 13 14 14 14 13 13 13 14 13 13 12 12 12 10 10 10 10 10 10 11 12 12 13 13 12 12 12 12 12 11 11 11 11 12 12 12 12 12 12 12 12 12 13
13 13 14 14 14 14 14 14 14 14 14 14 13 13 12 11 11 11 11 10 11 12 13 14 14 13 13 14 14 13 13 13 13 13 13 13 13 13 13 13 13 13 14 14
14 14 14 15 15 15 15 15 15 15 15 14 14 15 13 12 12 12 12 11 11 12 13 14 14 15 14 14 14 15 15 15 14 14 15 15 15 15 14 15 15 15 15 15
16 15 14 15 15 15 16 16 16 17 17 16 15 15 14 13 13 13 13 13 13 13 13 15 16 16 16 16 15 15 15 16 16 16 16 16 16 16 16 16 16 16 16 16
16 15 14 15 15 15 16 16 16 17 18 18 17 16 14 14 14 14 14 14 14 14 15 15 16 17 17 18 17 16 16 16 17 18 18 18 18 17 17 17 17 16 16 16
17 16 15 16 16 16 16 16 17 18 18 18 17 17 14 13 15 16 16 15 16 16 16 17 17 18 18 18 18 18 17 18 17 17 17 18 18 18 18 17 17 16 16 16
18 17 16 17 17 17 17 17 18 19 20 19 18 17 14 15 15 16 16 17 17 18 18 18 18 18 19 19 18 19 18 18 18 19 18 19 18 18 18 17 17 17 17 18
19 18 18 18 18 18 18 18 19 20 20 20 21 18 16 16 16 16 16 17 18 18 18 19 19 19 19 19 19 20 20 20 19 20 20 20 19 19 19 17 17 18 18 18
20 20 20 19 20 19 19 19 20 21 22 22 22 20 19 18 18 17 16 16 17 18 18 18 18 17 18 19 20 20 21 21 20 20 21 21 20 19 19 18 18 18 18 19
21 21 21 21 21 21 21 20 21 22 22 23 22 21 20 20 19 19 17 16 17 18 18 19 18 19 18 18 20 20 21 22 22 22 21 21 20 20 19 19 19 19 19 20
23 23 23 23 23 23 23 22 22 23 22 23 21 21 20 21 20 19 18 17 18 19 19 19 20 20 20 20 20 20 21 21 23 23 22 21 21 21 21 20 20 21 21 21
25 25 25 25 24 25 25 24 23 23 22 23 22 21 22 23 21 20 20 19 20 20 21 21 21 22 22 22 21 21 22 22 23 23 23 22 22 22 22 22 21 22 22 22
25 25 26 25 25 26 26 25 25 25 24 24 24 23 23 24 23 22 22 21 21 21 22 22 23 23 23 22 23 23 22 23 24 24 25 24 24 23 23 23 22 22 23 23
25 26 27 26 26 27 25 24 25 25 25 25 25 25 26 26 25 24 24 24 23 23 23 23 24 24 24 24 24 24 23 24 24 25 26 26 25 25 25 25 24 24 23 24
26 26 26 27 27 27 25 25 25 25 25 25 25 25 26 26 26 25 25 25 25 25 24 24 24 25 26 26 26 26 25 25 26 26 27 27 27 27 27 27 26 26 25 25
27 27 27 27 27 27 24 25 25 25 25 25 25 25 26 27 27 26 26 27 27 26 25 25 25 25 26 27 26 26 26 26 26 27 27 27 28 28 28 28 28 27 26 26
28 28 28 28 28 27 25 25 26 27 26 27 27 27 26 27 28 28 28 28 28 27 26 26 26 26 27 28 28 27 27 27 27 27 28 28 29 29 30 30 29 29 28 28
29 29 28 28 29 27 26 26 27 27 28 29 29 28 28 29 30 30 30 29 29 28 28 28 28 28 28 29 28 28 27 28 28 28 28 28 29 30 30 31 30 30 30 29
30 30 30 30 30 28 28 28 28 29 29 29 30 30 30 30 31 31 32 31 31 30 30 30 30 30 30 30 29 29 28 29 29 28 28 28 29 29 30 30 30 30 30 30
30 30 31 31 31 30 30 30 31 31 30 31 30 30 31 32 31 32 32 32 32 32 32 31 30 30 30 30 29 30 30 30 30 29 29 29 30 30 30 30 30 30 30 30
29 30 30 31 31 32 32 32 32 31 31 31 32 32 33 33 33 33 34 33 33 33 32 32 31 31 31 31 30 31 31 31 31 30 30 30 31 30 30 31 31 32 31 30
29 31 31 31 32 33 32 33 33 33 33 33 33 34 34 34 33 34 35 35 35 34 34 34 33 33 32 32 32 32 32 32 32 32 31 32 32 31 31 31 31 31 31 31

GEFSCGP_500_meanwind_318.txt.gz
Wind_Speed
12 12 12 12 12 12 12 12 12 12 12 12 12 12 12 11 11 11 11 10 9 9 10 10 9 9 9 8 8 7 8 8 8 7 7 7 7 7 7 7 8 8 9 10
13 12 13 14 14 14 13 13 13 13 13 14 14 13 13 12 12 12 11 11 11 10 10 10 10 10 10 10 9 9 9 9 9 8 8 8 8 8 8 9 9 10 10 10
14 14 14 15 15 15 14 14 14 14 14 15 15 14 13 13 13 13 12 12 12 11 11 11 11 12 12 11 11 11 10 10 9 9 9 9 9 10 10 10 10 10 11 11
15 15 15 15 15 15 15 15 15 15 15 15 15 15 14 13 13 13 12 12 13 12 12 11 12 13 13 12 12 12 11 11 11 10 10 10 10 11 11 11 11 12 12 12
14 15 15 15 15 16 16 16 16 16 16 16 15 15 13 13 13 13 13 13 13 13 13 13 12 13 14 14 13 14 13 12 12 11 11 11 12 12 13 13 13 13 13 13
15 15 15 15 16 16 16 16 16 17 17 17 15 15 14 14 14 14 14 14 14 14 14 14 13 14 14 14 14 14 14 14 13 13 13 12 12 13 13 14 14 14 14 14
16 16 16 16 17 17 17 17 17 18 17 16 16 16 15 15 16 16 16 15 16 15 15 15 15 15 15 15 15 15 15 15 15 14 14 14 13 14 14 15 16 15 15 15
17 17 17 17 17 17 17 18 18 18 18 17 17 16 15 16 16 17 17 17 16 16 16 16 16 15 16 16 16 16 16 15 16 15 15 15 15 16 16 16 17 16 16 16
19 18 18 18 18 18 18 19 19 20 20 19 17 16 16 16 17 17 18 17 17 17 17 17 17 17 16 17 17 17 17 17 17 17 17 17 17 18 18 18 17 17 17 17
20 20 18 19 19 19 18 18 20 21 21 20 18 16 15 15 16 16 17 18 17 18 18 18 18 18 18 17 18 18 18 18 18 18 18 18 18 18 18 18 18 17 17 17
21 21 20 20 20 19 19 19 20 20 20 20 19 17 15 15 16 16 17 18 18 17 17 18 18 19 19 18 18 19 19 19 19 19 19 18 18 18 18 18 18 18 18 18
22 22 21 20 20 21 21 20 20 21 21 21 20 17 16 16 16 17 18 18 18 18 18 18 19 19 19 19 19 20 21 20 20 20 19 18 19 19 19 20 20 20 19 19
23 23 23 22 21 21 22 21 21 21 22 22 22 19 17 18 18 19 19 19 19 20 20 20 19 20 20 20 20 20 21 21 21 21 21 20 20 20 21 21 21 21 21 20
24 25 24 23 22 22 23 23 22 23 23 23 23 21 19 19 20 21 21 21 21 21 21 21 20 21 21 20 21 21 21 21 22 22 23 23 22 22 22 23 22 22 22 22
26 26 25 24 24 24 24 24 24 24 24 25 24 23 22 22 21 22 22 22 23 22 23 22 22 21 22 21 21 21 21 22 22 23 24 24 24 24 24 23 24 24 24 23
26 27 27 26 25 26 26 25 25 25 25 25 25 24 24 24 24 23 23 23 23 23 24 24 23 23 23 21 22 22 22 23 24 23 24 25 25 26 26 25 26 26 25 25
26 27 27 27 27 27 27 25 26 25 26 26 26 25 25 25 25 24 24 24 23 23 24 25 25 24 24 24 23 23 24 24 25 25 25 26 27 27 27 27 27 27 27 26
27 27 27 27 28 29 27 26 26 26 26 26 27 27 27 27 26 26 25 25 25 25 25 25 26 26 25 25 25 25 26 26 27 27 27 27 28 28 28 27 28 28 29 28
28 28 29 29 29 29 28 27 27 28 27 27 27 27 27 28 27 26 26 26 26 27 26 26 26 26 27 27 27 27 28 27 27 27 27 27 28 29 29 29 29 30 30 29
29 29 29 30 30 29 28 27 27 28 28 27 28 28 29 28 29 27 27 27 28 29 28 28 28 28 28 28 28 29 29 29 29 28 28 29 29 29 30 31 31 31 31 31
29 30 30 30 30 29 28 27 28 29 28 28 28 29 30 30 29 29 29 29 30 31 30 30 29 29 30 30 30 30 30 30 29 29 30 30 30 30 30 31 32 31 31 31
29 29 30 31 31 30 29 29 29 28 28 28 28 28 29 30 30 30 30 30 32 32 31 31 31 31 31 31 31 31 30 30 30 30 30 31 31 31 31 31 31 31 31 30
29 30 30 31 31 31 30 30 30 29 29 28 28 28 29 30 30 30 30 31 32 32 32 31 32 32 32 32 32 31 31 31 31 30 31 31 31 31 31 31 31 31 31 31
28 29 30 31 31 32 31 31 32 31 31 30 30 29 30 30 31 31 31 32 32 31 31 32 33 33 33 33 33 32 31 32 31 32 32 32 32 32 32 32 32 31 31 31
27 29 30 31 31 32 32 32 32 32 32 31 31 32 31 32 32 32 33 33 34 33 33 33 34 34 34 34 33 32 33 32 32 32 33 33 33 33 32 32 32 32 31 31
25 27 29 30 31 32 32 32 33 33 33 32 32 31 32 32 32 33 33 33 33 34 34 34 34 34 34 34 33 33 33 33 33 33 33 33 33 33 33 33 33 33 32 33

GEFSCGP_500_meanwind_324.txt.gz
Wind_Speed
10 10 10 11 11 11 11 11 11 12 12 12 12 12 12 12 12 13 13 13 14 14 14 13 13 13 13 14 14 13 12 11 11 10 10 10 10 10 9 9 10 10 10 10
11 11 12 12 12 12 12 12 13 13 13 13 13 13 13 13 13 13 13 14 15 15 15 14 13 13 14 14 14 13 13 12 11 11 10 10 10 10 11 11 11 11 11 11
12 13 13 13 13 13 13 13 14 14 14 14 14 14 14 14 15 14 14 14 14 14 14 14 14 14 14 14 13 13 12 12 12 11 11 11 11 11 11 11 11 11 11 11
13 14 14 14 14 14 13 14 14 14 14 14 15 15 15 15 15 15 15 15 15 14 14 14 15 15 14 14 14 13 13 13 13 13 12 12 12 12 12 11 11 12 12 12
14 15 15 16 15 15 15 15 15 14 15 15 15 16 16 16 16 16 16 15 15 15 15 15 15 15 15 14 14 14 14 15 15 14 13 14 13 13 13 12 12 13 13 13
15 16 16 16 16 16 16 16 16 16 16 16 16 17 17 16 16 16 16 16 16 16 15 16 16 16 16 15 15 15 15 15 16 16 15 15 15 15 14 14 14 14 14 14
17 17 17 17 17 17 17 17 17 17 17 16 17 17 17 16 16 16 16 16 16 16 16 16 16 17 17 17 16 16 16 16 17 17 17 16 16 16 15 15 15 16 16 16
18 18 17 17 17 18 18 18 18 18 18 17 17 18 17 17 17 16 17 17 17 17 17 18 18 18 18 18 17 17 17 17 17 18 18 17 17 17 16 16 16 16 16 16
19 19 18 18 18 19 19 19 19 19 19 19 18 17 17 17 17 17 17 17 18 18 18 18 19 19 19 19 18 18 18 18 19 19 19 19 19 18 17 17 17 17 17 18
19 20 19 19 19 20 20 20 20 20 20 20 19 18 18 17 17 17 17 17 18 19 19 19 20 20 19 19 20 19 19 19 19 20 20 20 20 19 18 18 19 19 19 18
21 21 21 21 21 21 21 21 21 21 21 20 20 19 19 18 18 18 18 18 18 18 19 20 20 21 21 21 21 21 21 21 21 21 21 21 21 20 20 19 19 20 19 19
22 23 23 23 22 22 22 22 21 22 22 22 22 21 20 19 19 19 19 19 19 19 19 20 21 21 21 22 22 22 23 22 22 22 21 22 22 22 21 20 19 20 20 19
23 24 24 24 24 23 23 23 23 23 23 23 23 22 21 21 20 21 21 20 20 21 21 21 21 22 22 23 23 23 23 23 23 22 22 22 22 22 22 21 20 19 20 20
24 25 25 25 25 25 25 25 25 25 25 25 23 23 23 23 22 22 22 22 21 22 22 22 22 22 23 23 23 23 23 23 23 23 23 23 22 23 23 23 21 21 21 21
25 25 25 25 25 25 25 26 26 26 25 26 25 24 24 25 24 23 23 23 23 23 24 24 24 24 24 24 25 24 24 24 24 24 24 24 24 24 24 24 23 22 22 22
26 26 26 26 26 26 26 25 25 26 26 26 27 26 24 25 25 25 25 24 24 24 25 25 25 24 24 25 25 25 25 25 25 26 26 26 26 25 25 25 26 25 25 24
27 27 27 27 26 27 28 26 25 25 26 26 27 25 25 26 27 26 26 26 26 26 26 26 26 26 25 25 26 26 26 26 26 27 27 28 28 27 27 27 27 28 27 27
27 27 28 28 28 28 27 26 26 26 25 25 26 26 26 26 27 28 28 27 26 26 27 27 27 27 27 26 27 28 27 27 27 28 28 29 29 29 29 29 29 29 30 30
27 27 28 28 28 28 27 25 25 26 26 26 26 26 26 27 28 28 29 29 28 27 27 27 27 28 28 29 29 29 29 30 30 30 30 30 31 31 31 31 30 31 31 31
26 26 27 27 27 27 27 26 25 26 26 25 26 25 26 26 27 28 28 29 29 29 29 29 29 29 30 30 30 30 30 31 30 31 31 31 31 32 32 32 32 32 32 32
25 25 26 26 27 28 26 26 25 26 26 25 25 26 27 27 28 28 28 29 30 30 30 31 31 30 31 31 31 31 32 32 32 32 32 32 32 33 33 34 34 34 34 33
25 26 26 26 27 27 26 26 26 27 27 27 26 27 27 27 28 29 29 29 30 30 31 32 32 32 32 32 32 32 33 33 34 33 33 33 33 33 34 34 34 34 34 34
24 26 26 27 27 27 27 27 28 29 29 28 28 27 28 28 29 31 31 31 31 32 32 33 32 32 33 33 34 34 34 34 35 35 34 34 34 33 34 34 34 34 34 34
23 24 26 27 27 27 28 28 28 29 30 30 30 30 30 30 30 31 32 32 32 33 34 34 34 34 34 34 35 35 36 36 37 37 36 36 35 34 34 33 34 34 33 33
23 23 25 26 26 27 27 28 28 29 29 29 29 30 30 30 30 30 31 32 33 34 34 33 34 34 35 35 35 35 35 36 36 35 36 35 35 35 34 34 33 33 34 34
22 23 24 25 25 27 27 27 28 28 28 28 28 28 29 29 30 30 30 31 31 31 32 32 33 33 33 33 33 34 34 34 35 35 35 35 35 35 35 35 35 34 34 34

GEFSCGP_500_meanwind_330.txt.gz
Wind_Speed
10 10 10 9 10 11 11 11 12 12 13 13 13 13 13 13 13 13 13 13 14 14 14 14 15 14 13 13 13 13 13 13 12 12 12 12 12 12 12 12 12 12 12 11
11 11 11 11 12 12 12 13 13 13 14 14 14 13 14 14 14 14 14 15 15 15 15 15 15 15 15 14 14 15 15 14 14 13 12 13 13 13 12 12 12 12 12 12
12 12 12 13 12 13 13 14 14 15 14 14 15 14 15 15 14 15 15 16 16 16 16 15 15 15 16 16 16 16 15 15 15 13 13 13 13 13 12 12 12 12 12 12
13 13 14 14 14 14 15 15 15 16 15 15 15 15 15 16 16 16 17 17 17 17 17 17 16 16 16 16 15 15 15 15 14 14 13 13 12 12 12 12 13 13 13 13
14 15 15 16 16 16 16 16 16 17 17 17 16 16 15 17 17 17 18 18 18 17 17 17 17 17 17 16 16 15 15 15 15 14 14 13 13 12 12 13 13 13 13 13
16 16 16 17 17 17 17 17 17 18 18 18 16 17 17 19 19 18 19 19 19 19 18 18 18 17 17 17 17 17 16 16 15 15 15 15 14 13 13 14 14 14 15 15
17 17 17 18 18 18 17 17 17 18 18 18 17 19 20 19 19 19 20 20 20 19 19 18 18 18 18 18 18 18 18 17 17 17 17 17 16 15 15 15 16 16 16 16
18 18 18 18 18 18 18 18 18 18 18 18 17 20 21 20 21 21 21 21 20 20 20 20 20 20 20 20 20 19 19 19 19 19 19 18 18 18 17 17 17 17 17 17
19 19 19 20 20 19 19 19 19 20 18 18 19 20 21 21 22 21 21 21 21 20 20 20 20 21 21 21 21 21 20 20 20 20 20 19 19 19 19 18 18 18 18 17
20 21 21 20 20 21 20 19 19 20 20 19 21 23 23 23 22 22 22 21 21 21 22 21 21 21 22 22 22 21 21 21 21 21 21 21 20 20 20 20 19 19 19 19
21 22 22 22 22 22 22 21 22 22 22 21 22 23 23 23 23 24 24 23 23 23 23 22 22 21 22 23 23 23 23 22 22 22 22 22 21 21 21 22 21 20 20 20
23 23 23 23 23 23 24 24 23 24 24 24 24 26 25 24 24 25 25 25 24 24 24 23 23 23 23 23 23 24 23 23 24 23 23 23 22 23 23 23 22 22 21 21
24 25 25 24 24 24 25 25 25 26 26 26 25 26 25 25 25 25 25 25 25 25 25 24 24 24 24 24 24 25 25 25 24 24 25 24 24 25 24 24 24 24 23 23
26 27 26 26 24 25 26 26 26 26 28 28 27 26 27 27 26 26 26 25 25 26 26 25 25 25 25 25 25 24 25 25 26 26 26 26 26 26 25 25 25 25 25 24
27 27 27 27 26 27 27 27 27 27 27 29 28 28 27 28 29 28 28 27 26 27 26 26 26 26 26 26 26 26 25 26 27 27 27 27 26 26 26 26 26 26 26 25
26 27 27 27 26 27 28 27 27 27 27 28 29 30 29 29 30 30 30 29 28 28 27 27 26 26 26 26 27 27 27 26 27 27 27 27 27 27 27 27 27 27 27 27
26 27 27 27 25 27 28 26 26 27 28 27 28 28 29 30 30 30 30 28 29 29 28 28 28 28 27 27 28 28 28 28 27 28 28 29 29 28 28 28 29 29 29 29
25 26 27 27 26 28 26 25 24 24 25 26 27 28 29 30 30 31 31 30 30 31 30 29 29 30 29 29 29 29 29 29 29 29 29 30 30 29 29 31 31 31 31 31
25 25 26 27 28 28 26 25 24 25 25 25 26 28 29 29 29 31 32 32 31 32 31 31 31 31 31 30 30 30 30 30 30 30 31 32 32 31 31 32 31 32 32 32
25 25 26 26 27 29 27 25 26 26 27 26 26 27 28 29 30 30 30 31 32 32 32 32 32 32 32 33 32 32 32 31 31 32 32 33 33 33 33 33 33 34 33 33
25 24 25 26 28 29 27 26 26 27 27 27 27 27 27 28 29 30 30 31 32 32 32 32 32 33 34 34 33 33 34 33 33 33 33 34 35 34 33 34 34 35 35 35
25 25 25 26 28 28 27 26 27 28 28 28 28 28 29 29 30 31 31 31 31 32 32 32 32 33 33 34 34 35 35 35 34 35 35 35 35 35 35 35 34 35 35 36
25 25 26 27 27 27 28 28 28 28 29 29 30 29 30 31 32 32 32 32 32 32 32 32 32 33 34 35 35 36 36 36 36 36 36 36 36 35 35 35 35 35 35 35
25 25 26 26 26 27 28 28 29 29 29 30 30 30 30 30 31 32 32 32 33 33 33 33 34 34 34 35 37 37 37 37 37 37 36 37 37 36 36 36 36 35 35 35
25 25 25 26 26 27 28 29 29 29 30 30 30 30 30 30 30 31 30 32 33 34 34 34 34 35 35 35 36 37 38 38 38 37 37 38 37 36 36 35 35 35 35 35
25 26 26 26 27 28 29 29 29 29 29 29 30 30 31 31 31 31 31 31 31 32 33 34 34 34 34 35 35 36 36 37 37 37 37 37 37 36 36 35 35 34 34 34

GEFSCGP_500_meanwind_336.txt.gz
Wind_Speed
12 12 11 11 10 10 10 10 9 9 9 9 9 9 9 9 10 10 10 10 11 11 11 11 11 11 11 11 11 11 11 11 11 10 10 10 10 10 10 10 9 9 9 9
12 12 11 11 11 11 11 11 10 10 10 10 10 10 10 10 11 10 10 10 10 11 12 12 12 12 12 12 12 12 12 12 12 11 11 11 11 11 11 11 11 10 10 10
12 11 13 13 12 12 12 12 11 11 11 12 12 11 11 11 12 11 10 10 10 11 11 12 12 13 13 14 13 13 13 13 13 13 12 12 11 12 12 12 11 11 11 11
13 13 13 13 14 14 13 12 13 13 13 13 13 13 11 12 12 11 11 12 12 13 13 13 13 13 14 14 14 14 14 14 14 13 13 13 13 13 13 13 12 12 12 12
14 14 14 14 14 14 14 14 14 14 14 14 14 15 13 13 12 12 13 13 13 14 14 14 14 14 14 15 15 15 15 15 15 15 15 15 15 15 15 14 14 13 13 13
14 15 15 15 15 15 15 15 16 16 17 17 15 16 13 13 13 14 14 14 14 15 15 16 15 15 16 16 15 15 16 16 17 17 17 16 16 16 16 15 15 14 14 14
15 16 16 16 17 17 17 17 17 18 18 18 17 18 15 14 14 15 16 15 16 16 16 16 16 16 16 17 17 17 18 18 18 18 17 17 17 17 17 16 15 15 15 15
16 16 16 17 17 18 18 18 18 19 20 20 19 20 17 17 16 16 17 16 17 17 17 17 18 18 17 18 18 19 19 19 19 19 18 18 18 18 18 18 18 17 16 16
17 17 16 17 17 18 18 18 19 21 22 23 22 21 20 19 18 17 17 17 17 17 18 18 18 18 18 19 19 20 20 21 21 22 21 20 20 20 20 19 19 20 18 17
18 18 18 17 18 19 19 19 20 22 23 24 24 23 21 20 19 19 19 18 18 18 18 18 19 19 19 20 21 21 22 23 23 23 23 22 22 22 22 21 21 20 20 18
20 21 20 20 19 19 20 21 22 23 24 25 25 24 21 20 20 20 19 19 19 19 20 20 20 21 21 21 22 22 23 23 23 23 24 23 23 23 23 22 22 22 22 20
21 22 22 22 20 20 21 21 22 23 24 25 26 25 22 23 22 21 21 21 21 21 21 22 22 22 22 22 22 23 23 23 23 23 24 24 24 25 25 24 24 24 23 22
22 23 24 23 22 22 22 22 23 24 25 27 27 26 24 24 24 24 23 22 23 24 23 23 23 23 23 23 23 23 23 24 24 24 24 25 25 25 25 25 26 25 24 24
24 24 24 24 23 23 23 23 24 25 26 27 27 26 25 25 25 25 25 24 23 23 24 24 24 24 24 24 24 24 24 24 25 25 25 25 25 25 25 25 26 26 26 25
24 24 24 24 24 24 24 24 25 25 26 27 27 27 26 26 26 26 26 26 25 24 24 24 24 25 25 25 25 25 24 24 25 25 25 26 26 26 26 26 26 26 26 26
23 24 23 23 23 24 24 24 25 25 26 27 27 26 26 26 26 27 27 27 26 25 24 24 25 26 26 26 26 26 26 25 26 26 26 26 27 27 27 27 27 27 27 26
22 22 23 23 23 24 24 23 25 26 26 26 26 25 25 26 26 26 27 27 28 27 26 25 26 26 26 26 25 25 26 26 27 27 27 27 28 28 28 29 28 29 28 28
22 23 23 24 25 26 24 24 24 25 25 26 25 25 25 25 26 26 27 28 28 28 28 28 28 27 26 26 26 26 26 26 26 27 27 27 27 28 28 29 29 29 29 28
21 22 24 25 25 26 25 24 24 25 26 26 26 25 25 25 25 25 25 26 27 27 28 29 29 29 27 26 27 27 27 27 27 28 28 28 28 28 29 30 30 30 30 30
21 22 24 25 26 25 24 25 25 26 27 26 26 25 26 26 26 26 26 27 27 27 27 28 29 29 29 28 29 29 29 29 30 30 30 30 30 30 30 31 31 32 31 31
21 21 22 24 25 25 24 24 24 26 25 25 26 26 26 27 27 26 26 27 27 27 28 29 30 30 31 31 31 32 31 31 31 32 32 31 31 31 31 31 31 33 32 32
22 23 23 24 24 23 23 24 24 25 25 25 26 26 27 27 28 27 27 28 28 28 28 29 30 31 31 32 32 32 33 33 33 33 33 32 32 32 32 32 32 33 34 33
22 23 23 24 23 22 22 23 23 24 25 25 25 26 27 27 27 27 27 27 27 28 29 29 30 31 31 32 32 32 33 34 35 35 34 34 34 34 33 33 33 33 34 34
22 23 23 23 23 23 23 23 24 24 25 25 25 25 26 26 26 25 26 26 27 27 29 30 30 31 32 33 33 33 33 33 34 35 35 34 35 34 34 34 34 34 34 34
23 23 23 24 24 25 25 25 26 26 26 25 25 25 25 25 26 26 27 27 28 29 29 30 30 31 31 32 33 34 34 34 34 34 34 34 35 35 35 35 34 34 34 35
23 23 23 23 24 25 24 24 25 27 27 26 26 26 27 27 27 27 27 28 28 28 28 29 31 32 33 33 33 34 35 35 34 34 34 34 34 34 34 34 34 34 34 35

GEFSCGP_500_meanwind_342.txt.gz
Wind_Speed
12 12 12 13 13 13 12 12 11 11 11 12 12 11 12 12 12 12 12 13 13 13 13 13 12 13 13 12 12 12 12 12 11 11 11 11 11 11 11 11 11 10 10 10
13 13 13 13 13 13 12 12 12 12 12 13 13 13 13 13 13 13 14 14 14 14 14 14 14 14 14 14 13 13 13 13 12 12 12 12 11 11 12 12 12 11 11 11
13 13 13 13 13 13 13 13 13 13 14 14 14 14 14 14 14 14 15 15 15 15 15 15 15 15 15 15 14 14 14 14 13 13 13 13 12 12 12 12 13 12 12 12
15 14 14 14 14 14 14 14 15 15 15 15 16 15 14 15 15 15 15 16 16 16 16 16 16 15 15 15 16 16 16 15 15 15 15 14 13 13 12 13 13 14 14 14
15 15 15 15 15 16 15 16 16 16 17 17 17 16 15 15 15 16 16 16 17 17 17 17 17 17 16 16 16 17 17 17 17 16 16 16 15 14 13 13 14 15 15 15
16 16 17 16 17 17 17 17 18 18 18 18 17 18 16 16 15 16 16 17 18 19 18 18 18 18 18 18 18 18 18 18 18 18 17 17 17 16 15 15 16 16 16 16
17 17 18 18 18 18 19 19 19 20 20 20 19 19 18 17 17 17 17 18 19 20 19 19 19 18 18 18 19 19 19 19 19 19 18 19 18 18 17 18 18 17 18 18
17 17 18 19 19 20 20 20 21 21 22 21 20 20 19 18 18 19 19 19 20 20 20 20 20 19 19 19 20 20 20 20 20 20 20 20 20 20 19 19 20 19 19 19
18 18 18 19 20 21 21 22 21 22 23 23 22 21 19 19 19 20 20 20 20 20 20 21 21 21 21 21 21 21 21 21 21 21 22 22 22 21 21 21 21 21 21 21
20 20 20 20 21 21 21 22 22 23 22 22 22 21 20 19 20 20 21 21 21 21 21 21 22 22 22 22 22 22 22 22 22 22 23 23 23 24 23 23 22 22 22 22
21 21 20 21 21 21 21 21 22 23 23 23 23 22 20 21 21 21 21 22 22 21 22 22 22 23 23 23 22 23 23 24 24 24 25 24 24 24 25 24 24 23 23 23
21 22 22 21 22 22 22 22 22 22 22 23 24 23 21 21 21 21 22 22 22 22 23 23 23 23 23 23 24 24 24 25 25 26 26 26 26 26 26 26 26 25 24 24
23 24 24 23 22 22 23 23 23 23 24 24 24 23 22 22 23 23 23 23 23 23 23 23 23 24 24 24 25 25 25 25 26 27 27 27 27 27 27 27 27 26 26 25
24 24 24 23 23 23 23 23 23 24 25 25 24 23 23 23 24 24 24 24 23 23 23 24 24 25 25 26 27 26 26 26 26 26 27 27 27 27 27 27 27 27 27 26
23 24 23 23 22 22 23 24 24 25 25 26 25 25 24 25 25 25 25 25 25 24 24 24 24 25 26 27 26 26 26 26 26 26 26 26 26 26 26 27 27 28 28 27
22 23 23 22 22 22 23 24 24 25 24 25 25 25 25 26 26 25 25 25 26 25 25 25 26 26 27 27 27 27 27 27 27 27 26 26 26 26 27 27 27 27 28 28
22 22 22 22 22 23 24 22 23 25 25 26 26 25 25 26 26 26 25 26 26 27 27 27 27 28 28 28 27 27 27 27 28 27 27 27 27 27 27 28 28 28 28 29
21 21 22 22 23 25 24 23 24 25 25 27 28 27 26 27 27 27 27 27 26 26 27 27 28 28 29 30 29 28 27 27 27 28 28 28 28 28 28 29 28 28 29 29
20 21 22 23 24 25 24 23 23 24 25 26 27 27 26 27 27 27 27 27 27 27 27 27 28 28 29 30 30 31 30 28 28 29 29 29 29 29 29 29 29 29 30 30
22 22 23 24 25 25 24 24 24 25 25 24 26 27 27 27 27 26 26 27 27 27 27 27 28 28 28 29 30 31 31 31 30 30 30 30 29 30 30 30 31 31 31 31
23 23 24 25 26 25 24 25 25 26 27 26 25 26 27 27 28 27 27 28 28 28 28 29 29 28 28 29 30 31 31 32 32 31 31 32 32 32 31 31 31 31 32 32
24 24 25 25 26 26 26 27 27 27 27 27 26 26 26 27 27 27 27 28 28 29 29 30 29 29 29 29 30 31 31 32 33 33 33 34 34 34 34 34 34 33 32 32
25 25 25 25 25 25 26 26 27 27 27 27 27 27 27 28 28 28 28 28 28 29 29 30 30 29 29 30 30 31 31 32 33 34 35 35 35 35 35 35 35 35 34 34
24 24 24 24 24 25 25 25 26 27 27 27 27 27 27 28 29 29 29 29 29 29 29 30 30 30 30 30 31 32 32 32 33 34 35 35 35 35 35 35 35 35 34 34
21 22 22 23 23 24 24 25 26 27 27 26 26 26 26 27 27 27 28 28 28 28 29 29 29 29 29 30 31 31 32 33 34 34 34 35 35 35 35 35 34 34 34 34
22 22 23 23 23 24 24 24 25 25 26 25 25 25 25 26 27 28 28 29 30 30 29 28 28 28 28 29 30 31 31 32 33 34 34 35 35 35 35 35 35 35 34 33